Year,Month,Day,Hour,Minute,Value (Times are PST for temperature in C)
2009,07,18,00,00,19.70
2009,07,18,00,01,19.60
2009,07,18,00,02,19.60
2009,07,18,00,03,19.60
2009,07,18,00,04,19.60
2009,07,18,00,05,19.50
2009,07,18,00,06,19.50
2009,07,18,00,07,19.40
2009,07,18,00,08,19.40
2009,07,18,00,09,19.40
2009,07,18,00,10,19.40
2009,07,18,00,11,19.30
2009,07,18,00,12,19.30
2009,07,18,00,13,19.30
2009,07,18,00,14,19.30
2009,07,18,00,15,19.20
2009,07,18,00,16,19.20
2009,07,18,00,17,19.20
2009,07,18,00,18,19.10
2009,07,18,00,19,19.10
2009,07,18,00,20,19.00
2009,07,18,00,21,19.00
2009,07,18,00,22,18.90
2009,07,18,00,23,18.90
2009,07,18,00,24,18.80
2009,07,18,00,25,18.80
2009,07,18,00,26,18.80
2009,07,18,00,27,18.80
2009,07,18,00,28,18.80
2009,07,18,00,29,18.80
2009,07,18,00,30,18.80
2009,07,18,00,31,18.80
2009,07,18,00,32,18.80
2009,07,18,00,33,18.80
2009,07,18,00,34,18.80
2009,07,18,00,35,18.80
2009,07,18,00,36,18.80
2009,07,18,00,37,18.90
2009,07,18,00,38,18.90
2009,07,18,00,39,18.90
2009,07,18,00,40,18.90
2009,07,18,00,41,18.90
2009,07,18,00,42,18.90
2009,07,18,00,43,19.00
2009,07,18,00,44,19.00
2009,07,18,00,45,19.00
2009,07,18,00,46,19.10
2009,07,18,00,47,19.10
2009,07,18,00,48,19.10
2009,07,18,00,49,19.10
2009,07,18,00,50,19.10
2009,07,18,00,51,19.20
2009,07,18,00,52,19.20
2009,07,18,00,53,19.30
2009,07,18,00,54,19.30
2009,07,18,00,55,19.40
2009,07,18,00,56,19.50
2009,07,18,00,57,19.50
2009,07,18,00,58,19.50
2009,07,18,00,59,19.50
2009,07,18,01,00,19.50
2009,07,18,01,01,19.50
2009,07,18,01,02,19.50
2009,07,18,01,03,19.50
2009,07,18,01,04,19.40
2009,07,18,01,05,19.40
2009,07,18,01,06,19.30
2009,07,18,01,07,19.30
2009,07,18,01,08,19.20
2009,07,18,01,09,19.20
2009,07,18,01,10,19.10
2009,07,18,01,11,19.10
2009,07,18,01,12,19.00
2009,07,18,01,13,19.00
2009,07,18,01,14,18.90
2009,07,18,01,15,18.90
2009,07,18,01,16,18.90
2009,07,18,01,17,18.80
2009,07,18,01,18,18.80
2009,07,18,01,19,18.80
2009,07,18,01,20,18.80
2009,07,18,01,21,18.70
2009,07,18,01,22,18.70
2009,07,18,01,23,18.70
2009,07,18,01,24,18.70
2009,07,18,01,25,18.60
2009,07,18,01,26,18.60
2009,07,18,01,27,18.50
2009,07,18,01,28,18.50
2009,07,18,01,29,18.40
2009,07,18,01,30,18.40
2009,07,18,01,31,18.40
2009,07,18,01,32,18.30
2009,07,18,01,33,18.30
2009,07,18,01,34,18.30
2009,07,18,01,35,18.30
2009,07,18,01,36,18.20
2009,07,18,01,37,18.20
2009,07,18,01,38,18.20
2009,07,18,01,39,18.10
2009,07,18,01,40,18.10
2009,07,18,01,41,18.10
2009,07,18,01,42,18.00
2009,07,18,01,43,18.00
2009,07,18,01,44,17.90
2009,07,18,01,45,17.90
2009,07,18,01,46,17.90
2009,07,18,01,47,17.80
2009,07,18,01,48,17.80
2009,07,18,01,49,17.80
2009,07,18,01,50,17.70
2009,07,18,01,51,17.70
2009,07,18,01,52,17.70
2009,07,18,01,53,17.60
2009,07,18,01,54,17.50
2009,07,18,01,55,17.50
2009,07,18,01,56,17.40
2009,07,18,01,57,17.40
2009,07,18,01,58,17.30
2009,07,18,01,59,17.30
2009,07,18,02,00,17.20
2009,07,18,02,01,17.20
2009,07,18,02,02,17.10
2009,07,18,02,03,17.10
2009,07,18,02,04,17.00
2009,07,18,02,05,17.00
2009,07,18,02,06,17.00
2009,07,18,02,07,16.90
2009,07,18,02,08,16.80
2009,07,18,02,09,16.80
2009,07,18,02,10,16.80
2009,07,18,02,11,16.70
2009,07,18,02,12,16.70
2009,07,18,02,13,16.60
2009,07,18,02,14,16.60
2009,07,18,02,15,16.60
2009,07,18,02,16,16.50
2009,07,18,02,17,16.50
2009,07,18,02,18,16.40
2009,07,18,02,19,16.40
2009,07,18,02,20,16.40
2009,07,18,02,21,16.30
2009,07,18,02,22,16.30
2009,07,18,02,23,16.30
2009,07,18,02,24,16.20
2009,07,18,02,25,16.20
2009,07,18,02,26,16.20
2009,07,18,02,27,16.20
2009,07,18,02,28,16.10
2009,07,18,02,29,16.10
2009,07,18,02,30,16.10
2009,07,18,02,31,16.10
2009,07,18,02,32,16.10
2009,07,18,02,33,16.00
2009,07,18,02,34,16.00
2009,07,18,02,35,16.00
2009,07,18,02,36,16.00
2009,07,18,02,37,15.90
2009,07,18,02,38,15.90
2009,07,18,02,39,15.90
2009,07,18,02,40,15.90
2009,07,18,02,41,15.90
2009,07,18,02,42,15.80
2009,07,18,02,43,15.80
2009,07,18,02,44,15.80
2009,07,18,02,45,15.80
2009,07,18,02,46,15.80
2009,07,18,02,47,15.80
2009,07,18,02,48,15.80
2009,07,18,02,49,15.70
2009,07,18,02,50,15.70
2009,07,18,02,51,15.70
2009,07,18,02,52,15.70
2009,07,18,02,53,15.60
2009,07,18,02,54,15.60
2009,07,18,02,55,15.60
2009,07,18,02,56,15.60
2009,07,18,02,57,15.60
2009,07,18,02,58,15.60
2009,07,18,02,59,15.60
2009,07,18,03,00,15.50
2009,07,18,03,01,15.50
2009,07,18,03,02,15.50
2009,07,18,03,03,15.50
2009,07,18,03,04,15.50
2009,07,18,03,05,15.50
2009,07,18,03,06,15.50
2009,07,18,03,07,15.50
2009,07,18,03,08,15.50
2009,07,18,03,09,15.50
2009,07,18,03,10,15.50
2009,07,18,03,11,15.50
2009,07,18,03,12,15.50
2009,07,18,03,13,15.50
2009,07,18,03,14,15.50
2009,07,18,03,15,15.50
2009,07,18,03,16,15.40
2009,07,18,03,17,15.40
2009,07,18,03,18,15.40
2009,07,18,03,19,15.40
2009,07,18,03,20,15.30
2009,07,18,03,21,15.30
2009,07,18,03,22,15.30
2009,07,18,03,23,15.30
2009,07,18,03,24,15.30
2009,07,18,03,25,15.30
2009,07,18,03,26,15.30
2009,07,18,03,27,15.30
2009,07,18,03,28,15.20
2009,07,18,03,29,15.20
2009,07,18,03,30,15.20
2009,07,18,03,31,15.20
2009,07,18,03,32,15.20
2009,07,18,03,33,15.10
2009,07,18,03,34,15.10
2009,07,18,03,35,15.10
2009,07,18,03,36,15.10
2009,07,18,03,37,15.10
2009,07,18,03,38,15.10
2009,07,18,03,39,15.00
2009,07,18,03,40,15.00
2009,07,18,03,41,15.00
2009,07,18,03,42,15.00
2009,07,18,03,43,15.00
2009,07,18,03,44,15.00
2009,07,18,03,45,15.00
2009,07,18,03,46,15.00
2009,07,18,03,47,15.00
2009,07,18,03,48,15.00
2009,07,18,03,49,15.00
2009,07,18,03,50,15.00
2009,07,18,03,51,15.00
2009,07,18,03,52,15.00
2009,07,18,03,53,15.00
2009,07,18,03,54,15.00
2009,07,18,03,55,15.00
2009,07,18,03,56,15.00
2009,07,18,03,57,15.00
2009,07,18,03,58,15.00
2009,07,18,03,59,15.00
2009,07,18,04,00,15.10
2009,07,18,04,01,15.10
2009,07,18,04,02,15.20
2009,07,18,04,03,15.20
2009,07,18,04,04,15.30
2009,07,18,04,05,15.30
2009,07,18,04,06,15.30
2009,07,18,04,07,15.30
2009,07,18,04,08,15.30
2009,07,18,04,09,15.40
2009,07,18,04,10,15.40
2009,07,18,04,11,15.40
2009,07,18,04,12,15.40
2009,07,18,04,13,15.40
2009,07,18,04,14,15.40
2009,07,18,04,15,15.40
2009,07,18,04,16,15.40
2009,07,18,04,17,15.40
2009,07,18,04,18,15.40
2009,07,18,04,19,15.30
2009,07,18,04,20,15.30
2009,07,18,04,21,15.30
2009,07,18,04,22,15.20
2009,07,18,04,23,15.10
2009,07,18,04,24,15.00
2009,07,18,04,25,15.00
2009,07,18,04,26,15.00
2009,07,18,04,27,15.00
2009,07,18,04,28,15.00
2009,07,18,04,29,15.00
2009,07,18,04,30,14.90
2009,07,18,04,31,14.80
2009,07,18,04,32,14.80
2009,07,18,04,33,14.80
2009,07,18,04,34,14.70
2009,07,18,04,35,14.70
2009,07,18,04,36,14.70
2009,07,18,04,37,14.70
2009,07,18,04,38,14.60
2009,07,18,04,39,14.60
2009,07,18,04,40,14.60
2009,07,18,04,41,14.60
2009,07,18,04,42,14.50
2009,07,18,04,43,14.50
2009,07,18,04,44,14.50
2009,07,18,04,45,14.40
2009,07,18,04,46,14.40
2009,07,18,04,47,14.40
2009,07,18,04,48,14.40
2009,07,18,04,49,14.30
2009,07,18,04,50,14.30
2009,07,18,04,51,14.30
2009,07,18,04,52,14.30
2009,07,18,04,53,14.30
2009,07,18,04,54,14.20
2009,07,18,04,55,14.20
2009,07,18,04,56,14.20
2009,07,18,04,57,14.20
2009,07,18,04,58,14.10
2009,07,18,04,59,14.10
2009,07,18,05,00,14.10
2009,07,18,05,01,14.10
2009,07,18,05,02,14.10
2009,07,18,05,03,14.10
2009,07,18,05,04,14.00
2009,07,18,05,05,14.00
2009,07,18,05,06,14.00
2009,07,18,05,07,14.00
2009,07,18,05,08,13.90
2009,07,18,05,09,13.90
2009,07,18,05,10,13.90
2009,07,18,05,11,13.90
2009,07,18,05,12,13.90
2009,07,18,05,13,13.90
2009,07,18,05,14,13.90
2009,07,18,05,15,13.90
2009,07,18,05,16,13.90
2009,07,18,05,17,13.90
2009,07,18,05,18,13.90
2009,07,18,05,19,13.90
2009,07,18,05,20,13.90
2009,07,18,05,21,13.90
2009,07,18,05,22,13.90
2009,07,18,05,23,13.80
2009,07,18,05,24,13.80
2009,07,18,05,25,13.80
2009,07,18,05,26,13.80
2009,07,18,05,27,13.80
2009,07,18,05,28,13.80
2009,07,18,05,29,13.80
2009,07,18,05,30,13.80
2009,07,18,05,31,13.80
2009,07,18,05,32,13.80
2009,07,18,05,33,13.80
2009,07,18,05,34,13.90
2009,07,18,05,35,13.90
2009,07,18,05,36,13.90
2009,07,18,05,37,13.90
2009,07,18,05,38,13.90
2009,07,18,05,39,13.90
2009,07,18,05,40,13.90
2009,07,18,05,41,13.90
2009,07,18,05,42,13.90
2009,07,18,05,43,13.90
2009,07,18,05,44,13.90
2009,07,18,05,45,13.90
2009,07,18,05,46,13.90
2009,07,18,05,47,13.90
2009,07,18,05,48,13.90
2009,07,18,05,49,13.90
2009,07,18,05,50,13.80
2009,07,18,05,51,13.80
2009,07,18,05,52,13.80
2009,07,18,05,53,13.80
2009,07,18,05,54,13.80
2009,07,18,05,55,13.80
2009,07,18,05,56,13.80
2009,07,18,05,57,13.80
2009,07,18,05,58,13.80
2009,07,18,05,59,13.80
2009,07,18,06,00,13.80
2009,07,18,06,01,13.80
2009,07,18,06,02,13.80
2009,07,18,06,03,13.80
2009,07,18,06,04,13.80
2009,07,18,06,05,13.80
2009,07,18,06,06,13.80
2009,07,18,06,07,13.70
2009,07,18,06,08,13.70
2009,07,18,06,09,13.70
2009,07,18,06,10,13.70
2009,07,18,06,11,13.70
2009,07,18,06,12,13.70
2009,07,18,06,13,13.70
2009,07,18,06,14,13.70
2009,07,18,06,15,13.70
2009,07,18,06,16,13.70
2009,07,18,06,17,13.80
2009,07,18,06,18,13.80
2009,07,18,06,19,13.80
2009,07,18,06,20,13.80
2009,07,18,06,21,13.80
2009,07,18,06,22,13.80
2009,07,18,06,23,13.80
2009,07,18,06,24,13.80
2009,07,18,06,25,13.80
2009,07,18,06,26,13.80
2009,07,18,06,27,13.80
2009,07,18,06,28,13.80
2009,07,18,06,29,13.80
2009,07,18,06,30,13.80
2009,07,18,06,31,13.80
2009,07,18,06,32,13.80
2009,07,18,06,33,13.80
2009,07,18,06,34,13.80
2009,07,18,06,35,13.90
2009,07,18,06,36,13.90
2009,07,18,06,37,13.90
2009,07,18,06,38,13.90
2009,07,18,06,39,13.90
2009,07,18,06,40,13.90
2009,07,18,06,41,13.90
2009,07,18,06,42,14.00
2009,07,18,06,43,14.00
2009,07,18,06,44,14.00
2009,07,18,06,45,14.00
2009,07,18,06,46,14.00
2009,07,18,06,47,14.00
2009,07,18,06,48,14.10
2009,07,18,06,49,14.10
2009,07,18,06,50,14.10
2009,07,18,06,51,14.20
2009,07,18,06,52,14.20
2009,07,18,06,53,14.20
2009,07,18,06,54,14.30
2009,07,18,06,55,14.30
2009,07,18,06,56,14.30
2009,07,18,06,57,14.40
2009,07,18,06,58,14.40
2009,07,18,06,59,14.40
2009,07,18,07,00,14.50
2009,07,18,07,01,14.50
2009,07,18,07,02,14.60
2009,07,18,07,03,14.70
2009,07,18,07,04,14.70
2009,07,18,07,05,14.80
2009,07,18,07,06,14.80
2009,07,18,07,07,14.90
2009,07,18,07,08,15.00
2009,07,18,07,09,15.00
2009,07,18,07,10,15.00
2009,07,18,07,11,15.00
2009,07,18,07,12,15.00
2009,07,18,07,13,15.10
2009,07,18,07,14,15.20
2009,07,18,07,15,15.20
2009,07,18,07,16,15.30
2009,07,18,07,17,15.30
2009,07,18,07,18,15.40
2009,07,18,07,19,15.40
2009,07,18,07,20,15.50
2009,07,18,07,21,15.60
2009,07,18,07,22,15.60
2009,07,18,07,23,15.60
2009,07,18,07,24,15.70
2009,07,18,07,25,15.80
2009,07,18,07,26,15.80
2009,07,18,07,27,15.90
2009,07,18,07,28,15.90
2009,07,18,07,29,16.00
2009,07,18,07,30,16.00
2009,07,18,07,31,16.10
2009,07,18,07,32,16.10
2009,07,18,07,33,16.20
2009,07,18,07,34,16.20
2009,07,18,07,35,16.30
2009,07,18,07,36,16.30
2009,07,18,07,37,16.30
2009,07,18,07,38,16.40
2009,07,18,07,39,16.40
2009,07,18,07,40,16.50
2009,07,18,07,41,16.50
2009,07,18,07,42,16.60
2009,07,18,07,43,16.60
2009,07,18,07,44,16.60
2009,07,18,07,45,16.70
2009,07,18,07,46,16.70
2009,07,18,07,47,16.80
2009,07,18,07,48,16.80
2009,07,18,07,49,16.80
2009,07,18,07,50,16.80
2009,07,18,07,51,16.80
2009,07,18,07,52,16.80
2009,07,18,07,53,16.80
2009,07,18,07,54,16.80
2009,07,18,07,55,16.80
2009,07,18,07,56,16.80
2009,07,18,07,57,16.80
2009,07,18,07,58,16.80
2009,07,18,07,59,16.80
2009,07,18,08,00,16.80
2009,07,18,08,01,16.90
2009,07,18,08,02,16.90
2009,07,18,08,03,17.00
2009,07,18,08,04,17.00
2009,07,18,08,05,17.10
2009,07,18,08,06,17.20
2009,07,18,08,07,17.30
2009,07,18,08,08,17.30
2009,07,18,08,09,17.40
2009,07,18,08,10,17.50
2009,07,18,08,11,17.50
2009,07,18,08,12,17.60
2009,07,18,08,13,17.70
2009,07,18,08,14,17.80
2009,07,18,08,15,17.80
2009,07,18,08,16,17.90
2009,07,18,08,17,18.00
2009,07,18,08,18,18.10
2009,07,18,08,19,18.20
2009,07,18,08,20,18.30
2009,07,18,08,21,18.30
2009,07,18,08,22,18.30
2009,07,18,08,23,18.40
2009,07,18,08,24,18.50
2009,07,18,08,25,18.50
2009,07,18,08,26,18.60
2009,07,18,08,27,18.60
2009,07,18,08,28,18.60
2009,07,18,08,29,18.60
2009,07,18,08,30,18.70
2009,07,18,08,31,18.70
2009,07,18,08,32,18.70
2009,07,18,08,33,18.70
2009,07,18,08,34,18.70
2009,07,18,08,35,18.80
2009,07,18,08,36,18.80
2009,07,18,08,37,18.80
2009,07,18,08,38,18.90
2009,07,18,08,39,19.00
2009,07,18,08,40,19.00
2009,07,18,08,41,19.00
2009,07,18,08,42,19.10
2009,07,18,08,43,19.20
2009,07,18,08,44,19.30
2009,07,18,08,45,19.30
2009,07,18,08,46,19.40
2009,07,18,08,47,19.50
2009,07,18,08,48,19.60
2009,07,18,08,49,19.60
2009,07,18,08,50,19.70
2009,07,18,08,51,19.70
2009,07,18,08,52,19.80
2009,07,18,08,53,19.80
2009,07,18,08,54,19.80
2009,07,18,08,55,19.80
2009,07,18,08,56,19.90
2009,07,18,08,57,19.90
2009,07,18,08,58,19.90
2009,07,18,08,59,20.00
2009,07,18,09,00,20.00
2009,07,18,09,01,20.00
2009,07,18,09,02,20.00
2009,07,18,09,03,20.10
2009,07,18,09,04,20.10
2009,07,18,09,05,20.10
2009,07,18,09,06,20.10
2009,07,18,09,07,20.20
2009,07,18,09,08,20.20
2009,07,18,09,09,20.30
2009,07,18,09,10,20.30
2009,07,18,09,11,20.40
2009,07,18,09,12,20.40
2009,07,18,09,13,20.50
2009,07,18,09,14,20.60
2009,07,18,09,15,20.60
2009,07,18,09,16,20.60
2009,07,18,09,17,20.70
2009,07,18,09,18,20.70
2009,07,18,09,19,20.70
2009,07,18,09,20,20.80
2009,07,18,09,21,20.80
2009,07,18,09,22,20.80
2009,07,18,09,23,20.80
2009,07,18,09,24,20.90
2009,07,18,09,25,20.90
2009,07,18,09,26,20.90
2009,07,18,09,27,20.90
2009,07,18,09,28,21.00
2009,07,18,09,29,21.10
2009,07,18,09,30,21.10
2009,07,18,09,31,21.20
2009,07,18,09,32,21.30
2009,07,18,09,33,21.30
2009,07,18,09,34,21.40
2009,07,18,09,35,21.40
2009,07,18,09,36,21.50
2009,07,18,09,37,21.60
2009,07,18,09,38,21.60
2009,07,18,09,39,21.60
2009,07,18,09,40,21.60
2009,07,18,09,41,21.60
2009,07,18,09,42,21.60
2009,07,18,09,43,21.70
2009,07,18,09,44,21.70
2009,07,18,09,45,21.80
2009,07,18,09,46,21.90
2009,07,18,09,47,22.00
2009,07,18,09,48,22.10
2009,07,18,09,49,22.20
2009,07,18,09,50,22.40
2009,07,18,09,51,22.50
2009,07,18,09,52,22.60
2009,07,18,09,53,22.70
2009,07,18,09,54,22.80
2009,07,18,09,55,22.80
2009,07,18,09,56,22.90
2009,07,18,09,57,23.00
2009,07,18,09,58,23.00
2009,07,18,09,59,23.00
2009,07,18,10,00,22.90
2009,07,18,10,01,22.90
2009,07,18,10,02,22.80
2009,07,18,10,03,22.70
2009,07,18,10,04,22.60
2009,07,18,10,05,22.50
2009,07,18,10,06,22.50
2009,07,18,10,07,22.40
2009,07,18,10,08,22.40
2009,07,18,10,09,22.30
2009,07,18,10,10,22.30
2009,07,18,10,11,22.20
2009,07,18,10,12,22.20
2009,07,18,10,13,22.10
2009,07,18,10,14,22.00
2009,07,18,10,15,22.00
2009,07,18,10,16,21.90
2009,07,18,10,17,21.90
2009,07,18,10,18,21.90
2009,07,18,10,19,22.00
2009,07,18,10,20,22.00
2009,07,18,10,21,22.10
2009,07,18,10,22,22.00
2009,07,18,10,23,22.10
2009,07,18,10,24,22.10
2009,07,18,10,25,22.10
2009,07,18,10,26,22.20
2009,07,18,10,27,22.30
2009,07,18,10,28,22.30
2009,07,18,10,29,22.30
2009,07,18,10,30,22.40
2009,07,18,10,31,22.40
2009,07,18,10,32,22.50
2009,07,18,10,33,22.60
2009,07,18,10,34,22.70
2009,07,18,10,35,22.70
2009,07,18,10,36,22.80
2009,07,18,10,37,22.80
2009,07,18,10,38,22.90
2009,07,18,10,39,23.00
2009,07,18,10,40,23.00
2009,07,18,10,41,23.00
2009,07,18,10,42,23.00
2009,07,18,10,43,23.00
2009,07,18,10,44,23.10
2009,07,18,10,45,23.10
2009,07,18,10,46,23.20
2009,07,18,10,47,23.40
2009,07,18,10,48,23.50
2009,07,18,10,49,23.60
2009,07,18,10,50,23.70
2009,07,18,10,51,23.80
2009,07,18,10,52,23.80
2009,07,18,10,53,23.90
2009,07,18,10,54,23.90
2009,07,18,10,55,24.00
2009,07,18,10,56,24.10
2009,07,18,10,57,24.20
2009,07,18,10,58,24.20
2009,07,18,10,59,24.40
2009,07,18,11,00,24.50
2009,07,18,11,01,24.60
2009,07,18,11,02,24.70
2009,07,18,11,03,24.70
2009,07,18,11,04,24.70
2009,07,18,11,05,24.70
2009,07,18,11,06,24.70
2009,07,18,11,07,24.70
2009,07,18,11,08,24.60
2009,07,18,11,09,24.60
2009,07,18,11,10,24.60
2009,07,18,11,11,24.70
2009,07,18,11,12,24.70
2009,07,18,11,13,24.80
2009,07,18,11,14,24.80
2009,07,18,11,15,24.80
2009,07,18,11,16,24.80
2009,07,18,11,17,24.80
2009,07,18,11,18,24.70
2009,07,18,11,19,24.60
2009,07,18,11,20,24.60
2009,07,18,11,21,24.60
2009,07,18,11,22,24.70
2009,07,18,11,23,24.70
2009,07,18,11,24,24.70
2009,07,18,11,25,24.70
2009,07,18,11,26,24.70
2009,07,18,11,27,24.80
2009,07,18,11,28,24.80
2009,07,18,11,29,24.70
2009,07,18,11,30,24.60
2009,07,18,11,31,24.40
2009,07,18,11,32,24.30
2009,07,18,11,33,24.20
2009,07,18,11,34,24.30
2009,07,18,11,35,24.30
2009,07,18,11,36,24.30
2009,07,18,11,37,24.20
2009,07,18,11,38,24.20
2009,07,18,11,39,24.10
2009,07,18,11,40,24.10
2009,07,18,11,41,24.20
2009,07,18,11,42,24.20
2009,07,18,11,43,24.10
2009,07,18,11,44,24.10
2009,07,18,11,45,24.00
2009,07,18,11,46,24.00
2009,07,18,11,47,24.10
2009,07,18,11,48,24.10
2009,07,18,11,49,24.10
2009,07,18,11,50,24.20
2009,07,18,11,51,24.20
2009,07,18,11,52,24.30
2009,07,18,11,53,24.30
2009,07,18,11,54,24.20
2009,07,18,11,55,24.10
2009,07,18,11,56,24.00
2009,07,18,11,57,24.00
2009,07,18,11,58,24.00
2009,07,18,11,59,24.10
2009,07,18,12,00,24.30
2009,07,18,12,01,24.30
2009,07,18,12,02,24.40
2009,07,18,12,03,24.50
2009,07,18,12,04,24.50
2009,07,18,12,05,24.60
2009,07,18,12,06,24.70
2009,07,18,12,07,24.70
2009,07,18,12,08,24.70
2009,07,18,12,09,24.80
2009,07,18,12,10,24.90
2009,07,18,12,11,25.00
2009,07,18,12,12,25.00
2009,07,18,12,13,25.10
2009,07,18,12,14,25.10
2009,07,18,12,15,25.20
2009,07,18,12,16,25.20
2009,07,18,12,17,25.30
2009,07,18,12,18,25.30
2009,07,18,12,19,25.30
2009,07,18,12,20,25.40
2009,07,18,12,21,25.40
2009,07,18,12,22,25.50
2009,07,18,12,23,25.60
2009,07,18,12,24,25.60
2009,07,18,12,25,25.60
2009,07,18,12,26,25.60
2009,07,18,12,27,25.60
2009,07,18,12,28,25.60
2009,07,18,12,29,25.70
2009,07,18,12,30,25.70
2009,07,18,12,31,25.80
2009,07,18,12,32,25.80
2009,07,18,12,33,25.70
2009,07,18,12,34,25.60
2009,07,18,12,35,25.50
2009,07,18,12,36,25.50
2009,07,18,12,37,25.40
2009,07,18,12,38,25.40
2009,07,18,12,39,25.30
2009,07,18,12,40,25.40
2009,07,18,12,41,25.40
2009,07,18,12,42,25.40
2009,07,18,12,43,25.50
2009,07,18,12,44,25.40
2009,07,18,12,45,25.30
2009,07,18,12,46,25.20
2009,07,18,12,47,25.10
2009,07,18,12,48,25.00
2009,07,18,12,49,25.00
2009,07,18,12,50,25.00
2009,07,18,12,51,25.20
2009,07,18,12,52,25.30
2009,07,18,12,53,25.50
2009,07,18,12,54,25.60
2009,07,18,12,55,25.60
2009,07,18,12,56,25.70
2009,07,18,12,57,25.80
2009,07,18,12,58,25.80
2009,07,18,12,59,25.90
2009,07,18,13,00,25.90
2009,07,18,13,01,25.90
2009,07,18,13,02,26.00
2009,07,18,13,03,26.10
2009,07,18,13,04,26.20
2009,07,18,13,05,26.30
2009,07,18,13,06,26.40
2009,07,18,13,07,26.40
2009,07,18,13,08,26.50
2009,07,18,13,09,26.50
2009,07,18,13,10,26.60
2009,07,18,13,11,26.60
2009,07,18,13,12,26.60
2009,07,18,13,13,26.60
2009,07,18,13,14,26.60
2009,07,18,13,15,26.60
2009,07,18,13,16,26.60
2009,07,18,13,17,26.60
2009,07,18,13,18,26.70
2009,07,18,13,19,26.70
2009,07,18,13,20,26.80
2009,07,18,13,21,26.90
2009,07,18,13,22,26.90
2009,07,18,13,23,27.00
2009,07,18,13,24,27.00
2009,07,18,13,25,27.10
2009,07,18,13,26,27.10
2009,07,18,13,27,27.20
2009,07,18,13,28,27.20
2009,07,18,13,29,27.30
2009,07,18,13,30,27.20
2009,07,18,13,31,27.20
2009,07,18,13,32,27.10
2009,07,18,13,33,27.00
2009,07,18,13,34,26.90
2009,07,18,13,35,26.80
2009,07,18,13,36,26.80
2009,07,18,13,37,26.80
2009,07,18,13,38,26.80
2009,07,18,13,39,26.80
2009,07,18,13,40,26.60
2009,07,18,13,41,26.30
2009,07,18,13,42,26.10
2009,07,18,13,43,25.90
2009,07,18,13,44,25.70
2009,07,18,13,45,25.50
2009,07,18,13,46,25.40
2009,07,18,13,47,25.30
2009,07,18,13,48,25.20
2009,07,18,13,49,25.10
2009,07,18,13,50,25.00
2009,07,18,13,51,25.00
2009,07,18,13,52,24.90
2009,07,18,13,53,24.90
2009,07,18,13,54,24.80
2009,07,18,13,55,24.80
2009,07,18,13,56,24.70
2009,07,18,13,57,24.60
2009,07,18,13,58,24.50
2009,07,18,13,59,24.50
2009,07,18,14,00,24.50
2009,07,18,14,01,24.60
2009,07,18,14,02,24.70
2009,07,18,14,03,24.80
2009,07,18,14,04,25.00
2009,07,18,14,05,25.10
2009,07,18,14,06,25.20
2009,07,18,14,07,25.30
2009,07,18,14,08,25.40
2009,07,18,14,09,25.50
2009,07,18,14,10,25.60
2009,07,18,14,11,25.60
2009,07,18,14,12,25.60
2009,07,18,14,13,25.70
2009,07,18,14,14,25.80
2009,07,18,14,15,25.90
2009,07,18,14,16,26.00
2009,07,18,14,17,26.10
2009,07,18,14,18,26.30
2009,07,18,14,19,26.50
2009,07,18,14,20,26.70
2009,07,18,14,21,26.80
2009,07,18,14,22,26.80
2009,07,18,14,23,26.80
2009,07,18,14,24,26.90
2009,07,18,14,25,26.90
2009,07,18,14,26,26.80
2009,07,18,14,27,26.70
2009,07,18,14,28,26.70
2009,07,18,14,29,26.60
2009,07,18,14,30,26.50
2009,07,18,14,31,26.40
2009,07,18,14,32,26.40
2009,07,18,14,33,26.40
2009,07,18,14,34,26.40
2009,07,18,14,35,26.40
2009,07,18,14,36,26.60
2009,07,18,14,37,26.60
2009,07,18,14,38,26.60
2009,07,18,14,39,26.60
2009,07,18,14,40,26.70
2009,07,18,14,41,26.70
2009,07,18,14,42,26.80
2009,07,18,14,43,26.80
2009,07,18,14,44,26.80
2009,07,18,14,45,26.90
2009,07,18,14,46,27.00
2009,07,18,14,47,27.10
2009,07,18,14,48,27.00
2009,07,18,14,49,26.90
2009,07,18,14,50,26.60
2009,07,18,14,51,26.30
2009,07,18,14,52,25.90
2009,07,18,14,53,25.60
2009,07,18,14,54,25.30
2009,07,18,14,55,25.00
2009,07,18,14,56,24.80
2009,07,18,14,57,24.70
2009,07,18,14,58,24.60
2009,07,18,14,59,24.60
2009,07,18,15,00,24.60
2009,07,18,15,01,24.70
2009,07,18,15,02,24.80
2009,07,18,15,03,24.80
2009,07,18,15,04,24.80
2009,07,18,15,05,24.80
2009,07,18,15,06,24.90
2009,07,18,15,07,25.10
2009,07,18,15,08,25.30
2009,07,18,15,09,25.30
2009,07,18,15,10,25.20
2009,07,18,15,11,25.00
2009,07,18,15,12,24.80
2009,07,18,15,13,24.60
2009,07,18,15,14,24.50
2009,07,18,15,15,24.30
2009,07,18,15,16,24.10
2009,07,18,15,17,24.10
2009,07,18,15,18,24.20
2009,07,18,15,19,24.40
2009,07,18,15,20,24.40
2009,07,18,15,21,24.30
2009,07,18,15,22,24.20
2009,07,18,15,23,24.20
2009,07,18,15,24,24.20
2009,07,18,15,25,24.20
2009,07,18,15,26,24.30
2009,07,18,15,27,24.50
2009,07,18,15,28,24.80
2009,07,18,15,29,25.00
2009,07,18,15,30,25.30
2009,07,18,15,31,25.60
2009,07,18,15,32,25.70
2009,07,18,15,33,25.60
2009,07,18,15,34,25.70
2009,07,18,15,35,25.70
2009,07,18,15,36,25.80
2009,07,18,15,37,25.80
2009,07,18,15,38,25.70
2009,07,18,15,39,25.70
2009,07,18,15,40,25.80
2009,07,18,15,41,25.80
2009,07,18,15,42,25.80
2009,07,18,15,43,25.70
2009,07,18,15,44,25.70
2009,07,18,15,45,25.50
2009,07,18,15,46,25.20
2009,07,18,15,47,24.90
2009,07,18,15,48,24.70
2009,07,18,15,49,24.50
2009,07,18,15,50,24.30
2009,07,18,15,51,24.10
2009,07,18,15,52,23.90
2009,07,18,15,53,23.80
2009,07,18,15,54,23.70
2009,07,18,15,55,23.60
2009,07,18,15,56,23.50
2009,07,18,15,57,23.40
2009,07,18,15,58,23.30
2009,07,18,15,59,23.20
2009,07,18,16,00,23.20
2009,07,18,16,01,23.10
2009,07,18,16,02,23.00
2009,07,18,16,03,23.00
2009,07,18,16,04,22.90
2009,07,18,16,05,23.00
2009,07,18,16,06,23.10
2009,07,18,16,07,23.10
2009,07,18,16,08,23.10
2009,07,18,16,09,23.10
2009,07,18,16,10,23.00
2009,07,18,16,11,23.00
2009,07,18,16,12,23.00
2009,07,18,16,13,22.90
2009,07,18,16,14,22.90
2009,07,18,16,15,22.90
2009,07,18,16,16,22.80
2009,07,18,16,17,22.80
2009,07,18,16,18,22.80
2009,07,18,16,19,22.80
2009,07,18,16,20,22.80
2009,07,18,16,21,22.80
2009,07,18,16,22,22.80
2009,07,18,16,23,22.90
2009,07,18,16,24,22.90
2009,07,18,16,25,23.00
2009,07,18,16,26,23.10
2009,07,18,16,27,23.20
2009,07,18,16,28,23.30
2009,07,18,16,29,23.40
2009,07,18,16,30,23.50
2009,07,18,16,31,23.60
2009,07,18,16,32,23.60
2009,07,18,16,33,23.60
2009,07,18,16,34,23.60
2009,07,18,16,35,23.60
2009,07,18,16,36,23.60
2009,07,18,16,37,23.60
2009,07,18,16,38,23.70
2009,07,18,16,39,23.70
2009,07,18,16,40,23.70
2009,07,18,16,41,23.70
2009,07,18,16,42,23.70
2009,07,18,16,43,23.70
2009,07,18,16,44,23.60
2009,07,18,16,45,23.60
2009,07,18,16,46,23.50
2009,07,18,16,47,23.50
2009,07,18,16,48,23.50
2009,07,18,16,49,23.50
2009,07,18,16,50,23.40
2009,07,18,16,51,23.50
2009,07,18,16,52,23.60
2009,07,18,16,53,23.80
2009,07,18,16,54,23.90
2009,07,18,16,55,24.00
2009,07,18,16,56,24.00
2009,07,18,16,57,24.10
2009,07,18,16,58,24.00
2009,07,18,16,59,23.90
2009,07,18,17,00,23.90
2009,07,18,17,01,23.90
2009,07,18,17,02,24.00
2009,07,18,17,03,24.10
2009,07,18,17,04,24.30
2009,07,18,17,05,24.50
2009,07,18,17,06,24.70
2009,07,18,17,07,24.90
2009,07,18,17,08,25.10
2009,07,18,17,09,25.30
2009,07,18,17,10,25.40
2009,07,18,17,11,25.60
2009,07,18,17,12,25.70
2009,07,18,17,13,25.60
2009,07,18,17,14,25.40
2009,07,18,17,15,25.30
2009,07,18,17,16,25.20
2009,07,18,17,17,25.10
2009,07,18,17,18,25.00
2009,07,18,17,19,24.80